Wetterdaten: Montag, 10.08.2015
Datum Zeit Temp. Auen Feucht Auen Luftdruck Regen Richtung Richtung Windben
10.08.2015 00:00 19,3 C 85 % 1012,8 hPa 0,0 mm W 267 4,8 km/h (1 Bft)
10.08.2015 00:05 19,4 C 84 % 1012,8 hPa 0,0 mm W 271 4,8 km/h (1 Bft)
10.08.2015 00:10 19,8 C 83 % 1012,9 hPa 0,0 mm W 271 4,8 km/h (1 Bft)
10.08.2015 00:15 19,5 C 83 % 1012,9 hPa 0,0 mm W 271 6,4 km/h (2 Bft)
10.08.2015 00:20 19,3 C 84 % 1013,0 hPa 0,0 mm W 280 4,8 km/h (1 Bft)
10.08.2015 00:25 19,2 C 84 % 1012,9 hPa 0,0 mm W 280 3,2 km/h (1 Bft)
10.08.2015 00:30 19,0 C 84 % 1012,9 hPa 0,0 mm W-SW 244 3,2 km/h (1 Bft)
10.08.2015 00:35 18,8 C 85 % 1012,9 hPa 0,0 mm W-SW 244 3,2 km/h (1 Bft)
10.08.2015 00:40 19,0 C 85 % 1013,0 hPa 0,0 mm W-SW 244 3,2 km/h (1 Bft)
10.08.2015 00:45 18,9 C 85 % 1013,0 hPa 0,0 mm S 187 3,2 km/h (1 Bft)
10.08.2015 00:50 18,7 C 85 % 1012,9 hPa 0,0 mm W-SW 245 3,2 km/h (1 Bft)
10.08.2015 00:55 18,7 C 85 % 1012,9 hPa 0,0 mm W-SW 245 3,2 km/h (1 Bft)
10.08.2015 01:00 18,8 C 85 % 1012,9 hPa 0,0 mm W-SW 246 3,2 km/h (1 Bft)
10.08.2015 01:05 18,8 C 85 % 1012,8 hPa 0,0 mm W-SW 246 1,6 km/h (1 Bft)
10.08.2015 01:10 18,6 C 85 % 1012,8 hPa 0,0 mm W-SW 245 3,2 km/h (1 Bft)
10.08.2015 01:15 18,4 C 86 % 1012,8 hPa 0,0 mm W 279 4,8 km/h (1 Bft)
10.08.2015 01:20 18,6 C 85 % 1012,8 hPa 0,0 mm W 278 3,2 km/h (1 Bft)
10.08.2015 01:25 18,8 C 84 % 1012,8 hPa 0,0 mm W 265 4,8 km/h (1 Bft)
10.08.2015 01:30 18,3 C 85 % 1012,8 hPa 0,0 mm W 265 1,6 km/h (1 Bft)
10.08.2015 01:35 18,5 C 85 % 1013,0 hPa 0,0 mm W 260 6,4 km/h (2 Bft)
10.08.2015 01:40 18,6 C 84 % 1013,1 hPa 0,0 mm W-SW 248 6,4 km/h (2 Bft)
10.08.2015 01:45 18,9 C 82 % 1013,1 hPa 0,0 mm W 267 4,8 km/h (1 Bft)
10.08.2015 01:50 19,4 C 80 % 1013,2 hPa 0,0 mm W 269 6,4 km/h (2 Bft)
10.08.2015 01:55 19,9 C 76 % 1013,3 hPa 0,0 mm W 263 8,0 km/h (2 Bft)
10.08.2015 02:00 20,3 C 76 % 1013,3 hPa 0,0 mm W 271 8,0 km/h (2 Bft)
10.08.2015 02:05 20,2 C 76 % 1013,4 hPa 0,0 mm W 271 6,4 km/h (2 Bft)
10.08.2015 02:10 20,3 C 78 % 1013,5 hPa 0,0 mm W 272 6,4 km/h (2 Bft)
10.08.2015 02:15 20,2 C 79 % 1013,4 hPa 0,0 mm W 272 3,2 km/h (1 Bft)
10.08.2015 02:20 20,1 C 80 % 1013,5 hPa 0,0 mm W 272 3,2 km/h (1 Bft)
10.08.2015 02:25 20,1 C 81 % 1013,4 hPa 0,0 mm W 272 3,2 km/h (1 Bft)
10.08.2015 02:30 20,1 C 82 % 1013,4 hPa 0,0 mm W 272 3,2 km/h (1 Bft)
10.08.2015 02:35 20,1 C 82 % 1013,4 hPa 0,0 mm W 272 1,6 km/h (1 Bft)
10.08.2015 02:40 20,1 C 83 % 1013,4 hPa 0,0 mm W 272 3,2 km/h (1 Bft)
10.08.2015 02:45 20,1 C 83 % 1013,4 hPa 0,0 mm W 272 3,2 km/h (1 Bft)
10.08.2015 02:50 19,8 C 83 % 1013,5 hPa 0,0 mm W 272 3,2 km/h (1 Bft)
10.08.2015 02:55 19,4 C 85 % 1013,5 hPa 0,0 mm W 272 1,6 km/h (1 Bft)
10.08.2015 03:00 19,6 C 86 % 1013,5 hPa 0,0 mm W 272 1,6 km/h (1 Bft)
10.08.2015 03:05 19,8 C 85 % 1013,5 hPa 0,0 mm W 272 1,6 km/h (1 Bft)
10.08.2015 03:10 19,6 C 85 % 1013,5 hPa 0,0 mm W 272 0,0 km/h (0 Bft)
10.08.2015 03:15 19,4 C 86 % 1013,5 hPa 0,0 mm W 272 0,0 km/h (0 Bft)
10.08.2015 03:20 19,1 C 87 % 1013,6 hPa 0,0 mm W 272 0,0 km/h (0 Bft)
10.08.2015 03:25 19,1 C 87 % 1013,6 hPa 0,0 mm W 272 1,6 km/h (1 Bft)
10.08.2015 03:30 19,2 C 87 % 1013,6 hPa 0,0 mm W 272 0,0 km/h (0 Bft)
10.08.2015 03:35 19,3 C 87 % 1013,6 hPa 0,0 mm W 272 1,6 km/h (1 Bft)
10.08.2015 03:40 19,3 C 87 % 1013,6 hPa 0,0 mm W 272 1,6 km/h (1 Bft)
10.08.2015 03:45 19,2 C 86 % 1013,6 hPa 0,0 mm W 272 0,0 km/h (0 Bft)
10.08.2015 03:50 18,9 C 87 % 1013,6 hPa 0,0 mm W 272 0,0 km/h (0 Bft)
10.08.2015 03:55 18,9 C 87 % 1013,6 hPa 0,0 mm W 272 0,0 km/h (0 Bft)
10.08.2015 04:00 18,7 C 87 % 1013,6 hPa 0,0 mm W 272 0,0 km/h (0 Bft)
10.08.2015 04:05 18,6 C 88 % 1013,6 hPa 0,0 mm W 272 1,6 km/h (1 Bft)
10.08.2015 04:10 18,6 C 88 % 1013,6 hPa 0,0 mm W 272 0,0 km/h (0 Bft)
10.08.2015 04:15 18,6 C 88 % 1013,6 hPa 0,0 mm W 272 0,0 km/h (0 Bft)
10.08.2015 04:20 18,7 C 88 % 1013,5 hPa 0,0 mm W 272 0,0 km/h (0 Bft)
10.08.2015 04:25 18,6 C 88 % 1013,5 hPa 0,0 mm W 272 0,0 km/h (0 Bft)
10.08.2015 04:30 18,2 C 88 % 1013,5 hPa 0,0 mm W 272 0,0 km/h (0 Bft)
10.08.2015 04:35 18,0 C 88 % 1013,5 hPa 0,0 mm W 272 0,0 km/h (0 Bft)
10.08.2015 04:40 17,9 C 89 % 1013,5 hPa 0,0 mm W 272 1,6 km/h (1 Bft)
10.08.2015 04:45 18,0 C 89 % 1013,4 hPa 0,0 mm W 272 0,0 km/h (0 Bft)
10.08.2015 04:50 17,9 C 89 % 1013,4 hPa 0,0 mm W 272 3,2 km/h (1 Bft)
10.08.2015 04:55 18,0 C 89 % 1013,3 hPa 0,0 mm W 272 3,2 km/h (1 Bft)
10.08.2015 05:00 17,9 C 89 % 1013,3 hPa 0,0 mm W 272 1,6 km/h (1 Bft)
10.08.2015 05:05 17,6 C 89 % 1013,4 hPa 0,0 mm W 272 0,0 km/h (0 Bft)
10.08.2015 05:10 17,7 C 89 % 1013,4 hPa 0,0 mm W 272 1,6 km/h (1 Bft)
10.08.2015 05:15 17,6 C 89 % 1013,4 hPa 0,0 mm W 272 0,0 km/h (0 Bft)
10.08.2015 05:20 17,5 C 90 % 1013,4 hPa 0,0 mm W 272 0,0 km/h (0 Bft)
10.08.2015 05:25 17,3 C 90 % 1013,4 hPa 0,0 mm W 272 0,0 km/h (0 Bft)
10.08.2015 05:30 17,3 C 90 % 1013,4 hPa 0,0 mm W 272 0,0 km/h (0 Bft)
10.08.2015 05:35 17,4 C 90 % 1013,4 hPa 0,0 mm W 272 0,0 km/h (0 Bft)
10.08.2015 05:40 17,5 C 90 % 1013,5 hPa 0,0 mm W 272 0,0 km/h (0 Bft)
10.08.2015 05:45 17,2 C 90 % 1013,5 hPa 0,0 mm W 272 0,0 km/h (0 Bft)
10.08.2015 05:50 17,1 C 90 % 1013,5 hPa 0,0 mm W 272 1,6 km/h (1 Bft)
10.08.2015 05:55 17,0 C 90 % 1013,5 hPa 0,0 mm W 272 0,0 km/h (0 Bft)
10.08.2015 06:00 17,0 C 90 % 1013,5 hPa 0,0 mm W 272 1,6 km/h (1 Bft)
10.08.2015 06:05 17,1 C 90 % 1013,6 hPa 0,0 mm W 272 1,6 km/h (1 Bft)
10.08.2015 06:10 17,1 C 90 % 1013,6 hPa 0,0 mm W 272 3,2 km/h (1 Bft)
10.08.2015 06:15 17,1 C 90 % 1013,5 hPa 0,0 mm W 272 1,6 km/h (1 Bft)
10.08.2015 06:20 16,9 C 90 % 1013,6 hPa 0,0 mm W 272 1,6 km/h (1 Bft)
10.08.2015 06:25 16,9 C 91 % 1013,6 hPa 0,0 mm W 272 1,6 km/h (1 Bft)
10.08.2015 06:30 17,5 C 91 % 1013,5 hPa 0,0 mm W 272 4,8 km/h (1 Bft)
10.08.2015 06:35 17,9 C 90 % 1013,6 hPa 0,0 mm W 272 3,2 km/h (1 Bft)
10.08.2015 06:40 17,8 C 90 % 1013,5 hPa 0,0 mm W 272 1,6 km/h (1 Bft)
10.08.2015 06:45 17,9 C 90 % 1013,4 hPa 0,0 mm W 272 1,6 km/h (1 Bft)
10.08.2015 06:50 18,2 C 89 % 1013,5 hPa 0,0 mm W 272 3,2 km/h (1 Bft)
10.08.2015 06:55 18,6 C 89 % 1013,4 hPa 0,0 mm W 272 3,2 km/h (1 Bft)
10.08.2015 07:00 18,8 C 88 % 1013,5 hPa 0,0 mm W 272 4,8 km/h (1 Bft)
10.08.2015 07:05 19,1 C 88 % 1013,6 hPa 0,0 mm W 272 3,2 km/h (1 Bft)
10.08.2015 07:10 19,4 C 87 % 1013,6 hPa 0,0 mm W 272 4,8 km/h (1 Bft)
10.08.2015 07:15 19,7 C 87 % 1013,6 hPa 0,0 mm W 272 3,2 km/h (1 Bft)
10.08.2015 07:20 20,0 C 86 % 1013,5 hPa 0,0 mm W 272 4,8 km/h (1 Bft)
10.08.2015 07:25 20,3 C 86 % 1013,5 hPa 0,0 mm W 272 1,6 km/h (1 Bft)
10.08.2015 07:30 20,6 C 85 % 1013,5 hPa 0,0 mm W 272 3,2 km/h (1 Bft)
10.08.2015 07:35 20,8 C 85 % 1013,4 hPa 0,0 mm W 272 3,2 km/h (1 Bft)
10.08.2015 07:40 21,2 C 84 % 1013,4 hPa 0,0 mm W 272 3,2 km/h (1 Bft)
10.08.2015 07:45 21,6 C 82 % 1013,4 hPa 0,0 mm W 269 3,2 km/h (1 Bft)
10.08.2015 07:50 21,9 C 82 % 1013,3 hPa 0,0 mm W 269 3,2 km/h (1 Bft)
10.08.2015 07:55 22,0 C 82 % 1013,4 hPa 0,0 mm W 269 0,0 km/h (0 Bft)
10.08.2015 08:00 22,2 C 82 % 1013,4 hPa 0,0 mm W 269 1,6 km/h (1 Bft)
10.08.2015 08:05 22,7 C 80 % 1013,4 hPa 0,0 mm W 269 3,2 km/h (1 Bft)
10.08.2015 08:10 23,1 C 79 % 1013,4 hPa 0,0 mm W 269 3,2 km/h (1 Bft)
10.08.2015 08:15 23,3 C 78 % 1013,4 hPa 0,0 mm W 269 4,8 km/h (1 Bft)
10.08.2015 08:20 23,4 C 78 % 1013,4 hPa 0,0 mm W 269 3,2 km/h (1 Bft)
10.08.2015 08:25 23,6 C 77 % 1013,4 hPa 0,0 mm W 269 1,6 km/h (1 Bft)
10.08.2015 08:30 23,5 C 79 % 1013,4 hPa 0,0 mm W 269 1,6 km/h (1 Bft)
10.08.2015 08:35 23,4 C 76 % 1013,3 hPa 0,0 mm W 269 1,6 km/h (1 Bft)
10.08.2015 08:40 23,7 C 74 % 1013,3 hPa 0,0 mm W 269 0,0 km/h (0 Bft)
10.08.2015 08:45 23,6 C 75 % 1013,3 hPa 0,0 mm W 269 3,2 km/h (1 Bft)
10.08.2015 08:50 24,6 C 71 % 1013,3 hPa 0,0 mm W 269 4,8 km/h (1 Bft)
10.08.2015 08:55 25,0 C 68 % 1013,2 hPa 0,0 mm W 269 4,8 km/h (1 Bft)
10.08.2015 09:00 24,7 C 70 % 1013,1 hPa 0,0 mm W 269 3,2 km/h (1 Bft)
10.08.2015 09:05 24,6 C 71 % 1013,2 hPa 0,0 mm W 269 1,6 km/h (1 Bft)
10.08.2015 09:10 24,9 C 68 % 1013,1 hPa 0,0 mm W-SW 253 3,2 km/h (1 Bft)
10.08.2015 09:15 24,5 C 71 % 1013,1 hPa 0,0 mm W-SW 252 3,2 km/h (1 Bft)
10.08.2015 09:20 24,1 C 69 % 1013,2 hPa 0,0 mm S-SW 213 3,2 km/h (1 Bft)
10.08.2015 09:25 24,1 C 70 % 1013,2 hPa 0,0 mm S-SW 197 3,2 km/h (1 Bft)
10.08.2015 09:30 24,0 C 69 % 1013,2 hPa 0,0 mm S-SW 194 4,8 km/h (1 Bft)
10.08.2015 09:35 24,3 C 71 % 1013,2 hPa 0,0 mm S 184 4,8 km/h (1 Bft)
10.08.2015 09:40 25,2 C 70 % 1013,1 hPa 0,0 mm S 184 1,6 km/h (1 Bft)
10.08.2015 09:45 24,6 C 70 % 1013,2 hPa 0,0 mm S 184 4,8 km/h (1 Bft)
10.08.2015 09:50 24,6 C 72 % 1013,2 hPa 0,0 mm S 184 1,6 km/h (1 Bft)
10.08.2015 09:55 24,6 C 72 % 1013,2 hPa 0,0 mm O 97 3,2 km/h (1 Bft)
10.08.2015 10:00 24,7 C 72 % 1013,2 hPa 0,0 mm S-SO 164 4,8 km/h (1 Bft)
10.08.2015 10:05 24,7 C 74 % 1013,2 hPa 0,0 mm O-SO 109 4,8 km/h (1 Bft)
10.08.2015 10:10 24,9 C 71 % 1013,1 hPa 0,0 mm NO 53 4,8 km/h (1 Bft)
10.08.2015 10:15 25,0 C 73 % 1013,1 hPa 0,0 mm O-SO 112 4,8 km/h (1 Bft)
10.08.2015 10:20 25,0 C 73 % 1013,0 hPa 0,0 mm O-SO 112 3,2 km/h (1 Bft)
10.08.2015 10:25 25,6 C 72 % 1013,0 hPa 0,0 mm SO 130 3,2 km/h (1 Bft)
10.08.2015 10:30 25,4 C 74 % 1013,0 hPa 0,0 mm S-SO 158 6,4 km/h (2 Bft)
10.08.2015 10:35 25,1 C 74 % 1012,9 hPa 0,0 mm S 177 6,4 km/h (2 Bft)
10.08.2015 10:40 25,4 C 72 % 1012,9 hPa 0,0 mm SO 132 9,7 km/h (2 Bft)
10.08.2015 10:45 25,5 C 70 % 1012,9 hPa 0,0 mm O 99 8,0 km/h (2 Bft)
10.08.2015 10:50 25,7 C 70 % 1012,8 hPa 0,0 mm SO 125 9,7 km/h (2 Bft)
10.08.2015 10:55 25,8 C 69 % 1012,8 hPa 0,0 mm S-SO 163 9,7 km/h (2 Bft)
10.08.2015 11:00 25,9 C 71 % 1012,8 hPa 0,0 mm S-SO 161 4,8 km/h (1 Bft)
10.08.2015 11:05 25,8 C 68 % 1012,7 hPa 0,0 mm O 96 8,0 km/h (2 Bft)
10.08.2015 11:10 26,0 C 68 % 1012,7 hPa 0,0 mm S-SO 154 6,4 km/h (2 Bft)
10.08.2015 11:15 26,1 C 71 % 1012,7 hPa 0,0 mm S-SO 150 8,0 km/h (2 Bft)
10.08.2015 11:20 26,3 C 73 % 1012,6 hPa 0,0 mm O 96 9,7 km/h (2 Bft)
10.08.2015 11:25 26,3 C 69 % 1012,6 hPa 0,0 mm O-NO 67 8,0 km/h (2 Bft)
10.08.2015 11:30 26,4 C 70 % 1012,5 hPa 0,0 mm O 97 9,7 km/h (2 Bft)
10.08.2015 11:35 26,4 C 71 % 1012,5 hPa 0,0 mm SO 135 8,0 km/h (2 Bft)
10.08.2015 11:40 26,6 C 69 % 1012,4 hPa 0,0 mm SO 133 8,0 km/h (2 Bft)
10.08.2015 11:45 26,9 C 71 % 1012,4 hPa 0,0 mm O 81 8,0 km/h (2 Bft)
10.08.2015 11:50 26,9 C 69 % 1012,3 hPa 0,0 mm O 93 6,4 km/h (2 Bft)
10.08.2015 11:55 27,0 C 67 % 1012,3 hPa 0,0 mm S-SO 153 8,0 km/h (2 Bft)
10.08.2015 12:00 27,2 C 67 % 1012,3 hPa 0,0 mm O-NO 57 8,0 km/h (2 Bft)
10.08.2015 12:05 27,2 C 66 % 1012,2 hPa 0,0 mm O-NO 69 6,4 km/h (2 Bft)
10.08.2015 12:10 27,3 C 61 % 1012,1 hPa 0,0 mm O-SO 123 8,0 km/h (2 Bft)
10.08.2015 12:15 27,4 C 66 % 1012,1 hPa 0,0 mm SO 144 9,7 km/h (2 Bft)
10.08.2015 12:20 27,4 C 66 % 1012,1 hPa 0,0 mm SO 139 6,4 km/h (2 Bft)
10.08.2015 12:25 27,6 C 59 % 1012,0 hPa 0,0 mm N-NO 24 6,4 km/h (2 Bft)
10.08.2015 12:30 27,7 C 66 % 1012,0 hPa 0,0 mm O 80 4,8 km/h (1 Bft)
10.08.2015 12:35 27,6 C 64 % 1011,9 hPa 0,0 mm SO 142 9,7 km/h (2 Bft)
10.08.2015 12:40 27,7 C 66 % 1011,9 hPa 0,0 mm SO 137 8,0 km/h (2 Bft)
10.08.2015 12:45 27,7 C 61 % 1011,8 hPa 0,0 mm O-NO 63 8,0 km/h (2 Bft)
10.08.2015 12:50 27,8 C 62 % 1011,8 hPa 0,0 mm SO 137 4,8 km/h (1 Bft)
10.08.2015 12:55 28,0 C 62 % 1011,7 hPa 0,0 mm SO 143 12,9 km/h (3 Bft)
10.08.2015 13:00 28,1 C 61 % 1011,7 hPa 0,0 mm O 79 11,3 km/h (2 Bft)
10.08.2015 13:05 28,2 C 56 % 1011,7 hPa 0,0 mm S-SO 151 12,9 km/h (3 Bft)
10.08.2015 13:10 28,3 C 65 % 1011,6 hPa 0,0 mm O 91 8,0 km/h (2 Bft)
10.08.2015 13:15 28,2 C 57 % 1011,6 hPa 0,0 mm SO 128 11,3 km/h (2 Bft)
10.08.2015 13:20 28,4 C 60 % 1011,6 hPa 0,0 mm O-SO 117 12,9 km/h (3 Bft)
10.08.2015 13:25 28,5 C 59 % 1011,6 hPa 0,0 mm O-NO 57 11,3 km/h (2 Bft)
10.08.2015 13:30 28,4 C 59 % 1011,5 hPa 0,0 mm O-SO 107 11,3 km/h (2 Bft)
10.08.2015 13:35 28,6 C 55 % 1011,5 hPa 0,0 mm O-SO 103 14,5 km/h (3 Bft)
10.08.2015 13:40 28,6 C 60 % 1011,5 hPa 0,0 mm O-NO 71 14,5 km/h (3 Bft)
10.08.2015 13:45 28,8 C 55 % 1011,4 hPa 0,0 mm O-SO 116 12,9 km/h (3 Bft)
10.08.2015 13:50 28,7 C 57 % 1011,4 hPa 0,0 mm O-SO 119 11,3 km/h (2 Bft)
10.08.2015 13:55 28,6 C 56 % 1011,4 hPa 0,0 mm SO 143 14,5 km/h (3 Bft)
10.08.2015 14:00 28,7 C 54 % 1011,3 hPa 0,0 mm SO 144 11,3 km/h (2 Bft)
10.08.2015 14:05 28,8 C 56 % 1011,3 hPa 0,0 mm SO 136 14,5 km/h (3 Bft)
10.08.2015 14:10 28,8 C 56 % 1011,2 hPa 0,0 mm SO 135 11,3 km/h (2 Bft)
10.08.2015 14:15 28,9 C 59 % 1011,2 hPa 0,0 mm NO 48 9,7 km/h (2 Bft)
10.08.2015 14:20 29,1 C 54 % 1011,2 hPa 0,0 mm SO 126 8,0 km/h (2 Bft)
10.08.2015 14:25 29,2 C 53 % 1011,2 hPa 0,0 mm O-NO 61 12,9 km/h (3 Bft)
10.08.2015 14:30 29,0 C 57 % 1011,1 hPa 0,0 mm SO 124 14,5 km/h (3 Bft)
10.08.2015 14:35 28,9 C 53 % 1011,1 hPa 0,0 mm O 101 14,5 km/h (3 Bft)
10.08.2015 14:40 28,9 C 54 % 1011,1 hPa 0,0 mm O-SO 115 12,9 km/h (3 Bft)
10.08.2015 14:45 29,1 C 53 % 1011,0 hPa 0,0 mm O-SO 104 11,3 km/h (2 Bft)
10.08.2015 14:50 29,1 C 52 % 1011,0 hPa 0,0 mm SO 135 8,0 km/h (2 Bft)
10.08.2015 14:55 29,1 C 55 % 1011,0 hPa 0,0 mm SO 142 12,9 km/h (3 Bft)
10.08.2015 15:00 29,1 C 50 % 1010,9 hPa 0,0 mm O-SO 109 11,3 km/h (2 Bft)
10.08.2015 15:05 29,4 C 49 % 1010,8 hPa 0,0 mm S-SO 147 8,0 km/h (2 Bft)
10.08.2015 15:10 29,2 C 52 % 1010,8 hPa 0,0 mm NO 53 9,7 km/h (2 Bft)
10.08.2015 15:15 29,3 C 50 % 1010,8 hPa 0,0 mm O-SO 115 9,7 km/h (2 Bft)
10.08.2015 15:20 29,5 C 54 % 1010,8 hPa 0,0 mm O-SO 105 4,8 km/h (1 Bft)
10.08.2015 15:25 29,4 C 51 % 1010,7 hPa 0,0 mm O 84 12,9 km/h (3 Bft)
10.08.2015 15:30 29,5 C 48 % 1010,8 hPa 0,0 mm N-NO 22 11,3 km/h (2 Bft)
10.08.2015 15:35 29,5 C 52 % 1010,7 hPa 0,0 mm O-NO 69 11,3 km/h (2 Bft)
10.08.2015 15:40 29,5 C 50 % 1010,7 hPa 0,0 mm O 89 8,0 km/h (2 Bft)
10.08.2015 15:45 29,4 C 51 % 1010,6 hPa 0,0 mm S-SO 148 8,0 km/h (2 Bft)
10.08.2015 15:50 29,4 C 52 % 1010,6 hPa 0,0 mm O 84 9,7 km/h (2 Bft)
10.08.2015 15:55 29,6 C 47 % 1010,6 hPa 0,0 mm SO 146 8,0 km/h (2 Bft)
10.08.2015 16:00 29,4 C 46 % 1010,6 hPa 0,0 mm O-NO 63 9,7 km/h (2 Bft)
10.08.2015 16:05 29,5 C 46 % 1010,5 hPa 0,0 mm O 82 11,3 km/h (2 Bft)
10.08.2015 16:10 29,5 C 47 % 1010,5 hPa 0,0 mm O 101 12,9 km/h (3 Bft)
10.08.2015 16:15 29,6 C 43 % 1010,4 hPa 0,0 mm O-NO 65 12,9 km/h (3 Bft)
10.08.2015 16:20 29,6 C 45 % 1010,4 hPa 0,0 mm O-NO 78 11,3 km/h (2 Bft)
10.08.2015 16:25 29,5 C 44 % 1010,4 hPa 0,0 mm SO 136 11,3 km/h (2 Bft)
10.08.2015 16:30 29,4 C 47 % 1010,4 hPa 0,0 mm O 98 6,4 km/h (2 Bft)
10.08.2015 16:35 29,6 C 46 % 1010,4 hPa 0,0 mm O-SO 103 12,9 km/h (3 Bft)
10.08.2015 16:40 29,4 C 52 % 1010,4 hPa 0,0 mm O-SO 104 9,7 km/h (2 Bft)
10.08.2015 16:45 29,4 C 47 % 1010,4 hPa 0,0 mm O 86 8,0 km/h (2 Bft)
10.08.2015 16:50 29,6 C 43 % 1010,4 hPa 0,0 mm N-NO 27 12,9 km/h (3 Bft)
10.08.2015 16:55 29,6 C 43 % 1010,4 hPa 0,0 mm NO 47 9,7 km/h (2 Bft)
10.08.2015 17:00 29,6 C 42 % 1010,4 hPa 0,0 mm O-SO 119 11,3 km/h (2 Bft)
10.08.2015 17:05 29,4 C 42 % 1010,4 hPa 0,0 mm O 80 11,3 km/h (2 Bft)
10.08.2015 17:10 29,4 C 41 % 1010,3 hPa 0,0 mm O-NO 63 8,0 km/h (2 Bft)
10.08.2015 17:15 29,4 C 44 % 1010,3 hPa 0,0 mm O-SO 123 6,4 km/h (2 Bft)
10.08.2015 17:20 29,4 C 41 % 1010,3 hPa 0,0 mm O-NO 67 11,3 km/h (2 Bft)
10.08.2015 17:25 29,4 C 43 % 1010,3 hPa 0,0 mm NO 56 9,7 km/h (2 Bft)
10.08.2015 17:30 29,5 C 41 % 1010,2 hPa 0,0 mm O-NO 76 8,0 km/h (2 Bft)
10.08.2015 17:35 29,3 C 44 % 1010,2 hPa 0,0 mm O-SO 105 9,7 km/h (2 Bft)
10.08.2015 17:40 29,4 C 41 % 1010,3 hPa 0,0 mm O-SO 103 8,0 km/h (2 Bft)
10.08.2015 17:45 29,3 C 43 % 1010,3 hPa 0,0 mm N-NO 28 8,0 km/h (2 Bft)
10.08.2015 17:50 29,3 C 43 % 1010,2 hPa 0,0 mm NO 38 6,4 km/h (2 Bft)
10.08.2015 17:55 29,3 C 41 % 1010,1 hPa 0,0 mm O-NO 63 9,7 km/h (2 Bft)
10.08.2015 18:00 29,2 C 40 % 1010,1 hPa 0,0 mm O-NO 77 6,4 km/h (2 Bft)
10.08.2015 18:05 29,2 C 40 % 1010,2 hPa 0,0 mm NO 50 8,0 km/h (2 Bft)
10.08.2015 18:10 29,1 C 41 % 1010,1 hPa 0,0 mm O-NO 66 6,4 km/h (2 Bft)
10.08.2015 18:15 28,9 C 41 % 1010,2 hPa 0,0 mm S-SO 156 8,0 km/h (2 Bft)
10.08.2015 18:20 28,7 C 45 % 1010,2 hPa 0,0 mm O-SO 107 6,4 km/h (2 Bft)
10.08.2015 18:25 28,6 C 47 % 1010,2 hPa 0,0 mm NO 45 4,8 km/h (1 Bft)
10.08.2015 18:30 28,6 C 45 % 1010,2 hPa 0,0 mm O-NO 70 3,2 km/h (1 Bft)
10.08.2015 18:35 28,4 C 48 % 1010,2 hPa 0,0 mm O-SO 104 3,2 km/h (1 Bft)
10.08.2015 18:40 28,2 C 44 % 1010,2 hPa 0,0 mm O-SO 110 3,2 km/h (1 Bft)
10.08.2015 18:45 28,2 C 45 % 1010,1 hPa 0,0 mm O-SO 113 3,2 km/h (1 Bft)
10.08.2015 18:50 27,9 C 49 % 1010,1 hPa 0,0 mm SO 143 4,8 km/h (1 Bft)
10.08.2015 18:55 27,6 C 51 % 1010,1 hPa 0,0 mm SO 143 3,2 km/h (1 Bft)
10.08.2015 19:00 27,3 C 56 % 1010,0 hPa 0,0 mm SO 143 3,2 km/h (1 Bft)
10.08.2015 19:05 27,1 C 55 % 1010,0 hPa 0,0 mm SO 143 1,6 km/h (1 Bft)
10.08.2015 19:10 26,6 C 57 % 1010,1 hPa 0,0 mm SO 143 1,6 km/h (1 Bft)
10.08.2015 19:15 26,3 C 60 % 1010,0 hPa 0,0 mm SO 143 0,0 km/h (0 Bft)
10.08.2015 19:20 26,3 C 59 % 1010,0 hPa 0,0 mm SO 143 1,6 km/h (1 Bft)
10.08.2015 19:25 26,3 C 56 % 1010,0 hPa 0,0 mm SO 142 1,6 km/h (1 Bft)
10.08.2015 19:30 26,2 C 56 % 1010,0 hPa 0,0 mm O 80 3,2 km/h (1 Bft)
10.08.2015 19:35 26,2 C 56 % 1010,0 hPa 0,0 mm O 80 1,6 km/h (1 Bft)
10.08.2015 19:40 25,3 C 64 % 1010,0 hPa 0,0 mm O 80 1,6 km/h (1 Bft)
10.08.2015 19:45 24,6 C 67 % 1010,0 hPa 0,0 mm O 80 0,0 km/h (0 Bft)
10.08.2015 19:50 24,4 C 65 % 1010,1 hPa 0,0 mm O 80 0,0 km/h (0 Bft)
10.08.2015 19:55 24,2 C 66 % 1010,1 hPa 0,0 mm O 80 1,6 km/h (1 Bft)
10.08.2015 20:00 23,7 C 69 % 1010,2 hPa 0,0 mm O 80 0,0 km/h (0 Bft)
10.08.2015 20:05 23,3 C 69 % 1010,2 hPa 0,0 mm O 80 1,6 km/h (1 Bft)
10.08.2015 20:10 23,3 C 64 % 1010,2 hPa 0,0 mm O 80 3,2 km/h (1 Bft)
10.08.2015 20:15 22,8 C 69 % 1010,3 hPa 0,0 mm O 87 1,6 km/h (1 Bft)
10.08.2015 20:20 22,1 C 70 % 1010,4 hPa 0,0 mm O 87 0,0 km/h (0 Bft)
10.08.2015 20:25 22,1 C 70 % 1010,3 hPa 0,0 mm O 83 3,2 km/h (1 Bft)
10.08.2015 20:30 21,6 C 71 % 1010,5 hPa 0,0 mm O 83 0,0 km/h (0 Bft)
10.08.2015 20:35 21,5 C 71 % 1010,5 hPa 0,0 mm O 83 0,0 km/h (0 Bft)
10.08.2015 20:40 21,4 C 70 % 1010,5 hPa 0,0 mm O 83 0,0 km/h (0 Bft)
10.08.2015 20:45 21,1 C 71 % 1010,5 hPa 0,0 mm O 83 0,0 km/h (0 Bft)
10.08.2015 20:50 20,5 C 72 % 1010,7 hPa 0,0 mm SO 145 3,2 km/h (1 Bft)
10.08.2015 20:55 20,6 C 71 % 1010,6 hPa 0,0 mm S-SO 161 1,6 km/h (1 Bft)
10.08.2015 21:00 19,9 C 74 % 1010,8 hPa 0,0 mm S-SO 161 1,6 km/h (1 Bft)
10.08.2015 21:05 19,6 C 75 % 1010,8 hPa 0,0 mm S-SO 161 3,2 km/h (1 Bft)
10.08.2015 21:10 19,4 C 76 % 1010,8 hPa 0,0 mm S-SO 163 1,6 km/h (1 Bft)
10.08.2015 21:15 19,7 C 75 % 1010,9 hPa 0,0 mm SW 220 1,6 km/h (1 Bft)
10.08.2015 21:20 19,7 C 76 % 1010,9 hPa 0,0 mm SW 220 3,2 km/h (1 Bft)
10.08.2015 21:25 19,7 C 76 % 1011,0 hPa 0,0 mm SW 220 1,6 km/h (1 Bft)
10.08.2015 21:30 19,3 C 78 % 1011,1 hPa 0,0 mm SW 220 1,6 km/h (1 Bft)
10.08.2015 21:35 18,9 C 79 % 1011,0 hPa 0,0 mm S-SW 192 1,6 km/h (1 Bft)
10.08.2015 21:40 19,0 C 78 % 1011,0 hPa 0,0 mm S 191 4,8 km/h (1 Bft)
10.08.2015 21:45 19,3 C 76 % 1011,1 hPa 0,0 mm W-SW 256 3,2 km/h (1 Bft)
10.08.2015 21:50 19,8 C 73 % 1011,1 hPa 0,0 mm W-SW 256 3,2 km/h (1 Bft)
10.08.2015 21:55 19,7 C 74 % 1011,1 hPa 0,0 mm W-SW 256 3,2 km/h (1 Bft)
10.08.2015 22:00 19,3 C 74 % 1011,1 hPa 0,0 mm SW 217 4,8 km/h (1 Bft)
10.08.2015 22:05 18,7 C 77 % 1011,2 hPa 0,0 mm W 263 6,4 km/h (2 Bft)
10.08.2015 22:10 18,9 C 77 % 1011,2 hPa 0,0 mm W-NW 285 6,4 km/h (2 Bft)
10.08.2015 22:15 19,2 C 77 % 1011,2 hPa 0,0 mm W-NW 283 4,8 km/h (1 Bft)
10.08.2015 22:20 19,1 C 76 % 1011,2 hPa 0,0 mm W-NW 287 4,8 km/h (1 Bft)
10.08.2015 22:25 18,7 C 77 % 1011,3 hPa 0,0 mm W-NW 287 6,4 km/h (2 Bft)
10.08.2015 22:30 18,3 C 78 % 1011,5 hPa 0,0 mm W-NW 286 6,4 km/h (2 Bft)
10.08.2015 22:35 18,1 C 79 % 1011,4 hPa 0,0 mm W-NW 286 3,2 km/h (1 Bft)
10.08.2015 22:40 18,2 C 79 % 1011,5 hPa 0,0 mm W 261 8,0 km/h (2 Bft)
10.08.2015 22:45 18,3 C 77 % 1011,5 hPa 0,0 mm SW 232 8,0 km/h (2 Bft)
10.08.2015 22:50 18,2 C 78 % 1011,5 hPa 0,0 mm SW 232 3,2 km/h (1 Bft)
10.08.2015 22:55 18,2 C 78 % 1011,5 hPa 0,0 mm W-NW 296 3,2 km/h (1 Bft)
10.08.2015 23:00 18,5 C 76 % 1011,6 hPa 0,0 mm W-SW 252 4,8 km/h (1 Bft)
10.08.2015 23:05 18,4 C 75 % 1011,8 hPa 0,0 mm S-SO 162 4,8 km/h (1 Bft)
10.08.2015 23:10 17,9 C 77 % 1011,7 hPa 0,0 mm W 260 4,8 km/h (1 Bft)
10.08.2015 23:15 17,8 C 78 % 1011,7 hPa 0,0 mm W 265 1,6 km/h (1 Bft)
10.08.2015 23:20 17,7 C 79 % 1011,7 hPa 0,0 mm W 265 3,2 km/h (1 Bft)
10.08.2015 23:25 17,8 C 78 % 1011,7 hPa 0,0 mm S 182 4,8 km/h (1 Bft)
10.08.2015 23:30 18,0 C 77 % 1011,8 hPa 0,0 mm W-SW 250 4,8 km/h (1 Bft)
10.08.2015 23:35 17,8 C 78 % 1011,9 hPa 0,0 mm S 182 3,2 km/h (1 Bft)
10.08.2015 23:40 17,6 C 79 % 1011,9 hPa 0,0 mm W-NW 286 6,4 km/h (2 Bft)
10.08.2015 23:45 17,7 C 78 % 1011,9 hPa 0,0 mm W-NW 286 3,2 km/h (1 Bft)
10.08.2015 23:50 18,0 C 77 % 1012,0 hPa 0,0 mm W-SW 252 8,0 km/h (2 Bft)
10.08.2015 23:55 17,7 C 78 % 1011,8 hPa 0,0 mm W 263 8,0 km/h (2 Bft)
_ Min-Zeit 06:25 18:00 19:00 - - - 03:10
Minimum _ 16,8 C 40 % 1010,0 hPa - - - 0,0 km/h (0 Bft)
_ Max-Zeit 16:55 06:25 03:20 00:00 - - 13:35
Maximum _ 29,7 C 91 % 1013,6 hPa 0,0 mm - - 14,5 km/h
SO (3 Bft)
Durchschnitt _ 23,2 C 71 % 1012,1 hPa #0,0 mm W - 5,1 km/h (1 Bft)